Regional Weather Roundup
Issued by NWS

Home | Current Version | Previous Version | Graphics & Text | Print | Product List | Glossary On
Versions: 1 2 3 4 5 6 7 8 9 10 11 12 13 14 15 16 17 18 19 20 21 22 23 24 25 26 27 28 29 30 31 32 33 34 35 36 37 38 39 40 41 42 43 44 45 46 47 48 49 50
000
ASUS43 KLSX 291357
RWRMO

WEATHER SUMMARY FOR MISSOURI
NATIONAL WEATHER SERVICE SPRINGFIELD MO
900 AM CDT MON MAY 29 2017

NOTE: "FAIR" INDICATES FEW OR NO CLOUDS BELOW 12,000 FEET WITH NO
       SIGNIFICANT WEATHER AND/OR OBSTRUCTIONS TO VISIBILITY.
       CURRENT SKY AND/OR WEATHER CONDITIONS ARE NOT AVAILABLE FOR
       CHILLICOTHE AND FARMINGTON.

MOZ001>031-035>038-043-044-053-054-291500-
...NORTHERN AND WESTERN MISSOURI...

CITY           SKY/WX    TMP DP  RH WIND       PRES   REMARKS
KANSAS CTY INT MOSUNNY   66  53  63 NW10      29.96R
LEE`S SUMMIT   MOSUNNY   68  55  63 W9        29.95S
ST JOSEPH      SUNNY     68  51  54 NW9       29.96R
CHILLICOTHE      N/A     67  53  61 CALM      29.94R

$$
MOZ066>068-077>081-088>096-101>105-291500-
...SOUTHWEST MISSOURI...

CITY           SKY/WX    TMP DP  RH WIND       PRES   REMARKS
SPRINGFIELD    SUNNY     70  57  63 W9        30.00S
JOPLIN         SUNNY     73  57  57 SW13      30.02R
BRANSON        PTSUNNY   68  57  68 W7        30.04R

$$
MOZ032>034-039>042-045>050-055>058-069>072-291500-
...CENTRAL MISSOURI...

CITY           SKY/WX    TMP DP  RH WIND       PRES   REMARKS
COLUMBIA       NOT AVBL
JEFFERSON CITY SUNNY     70  57  63 S3        29.94F
SEDALIA        CLOUDY    68  59  73 SW10      29.95S
WARRENSBURG    SUNNY     66  55  68 SW7       29.94S

$$
MOZ051-052-059>065-291500-
...EAST CENTRAL MISSOURI...

CITY           SKY/WX    TMP DP  RH WIND       PRES   REMARKS
ST LOUIS INTL  MOSUNNY   72  56  57 W8        29.94R

$$
MOZ072>076-082>087-097>100-106>115-291500-
...SOUTH CENTRAL AND SOUTHEAST MISSOURI...

CITY           SKY/WX    TMP DP  RH WIND       PRES   REMARKS
CAPE GIRARDEAU SUNNY     71  59  65 W7        29.96S
POPLAR BLUFF   SUNNY     71  62  73 CALM      29.97S
WEST PLAINS    SUNNY     69  58  67 W7        30.02R

$$


USA.gov is the U.S. government's official web portal to all federal, state and local government web resources and services.